SCP
0 0 0 0 0 0 0 0 0 0 0 0 0 0 0 0 0 0 0 0 0 0 0 0 0 0 0 0 0 0 0 0 0 0 0 0 0 0 0 0 0 0 0 0
0 0 0 0 0 0 0 0 0 0 0 0 0 0 0 0 0 0 0 0 0 0 0 0 0 0 0 0 0 0 0 0 0 0 0 0 0 0 0 0 0 0 0 0
0 0 0 0 0 0 0 0 0 0 0 0 0 0 0 0 0 0 0 0 0 0 0 0 0 0 0 0 0 0 0 0 0 0 0 0 0 0 0 0 0 0 0 0
0 0 0 0 0 0 0 0 0 0 0 0 0 0 0 0 0 0 0 0 0 0 0 0 0 0 0 0 0 0 0 0 0 0 0 0 0 0 0 0 0 0 0 0
0 0 0 0 0 0 0 0 0 0 0 0 0 0 -0 0 0 0 0 0 0 0 0 0 0 0 0 0 0 0 0 0 0 0 0 0 0 0 0 0 0 0 0 0
0 0 0 0 0 0 0 0 0 0 0 0 0 0 -0 0 0 0 0 0 0 0 0 0 0 0 0 0 0 0 0 0 0 0 0 0 0 0 0 0 0 0 0 0
0 0 0 0 0 0 0 0 0 0 0 0 0 0 0 0 0 0 0 0 0 0 0 0 0 0 0 0 0 0 0 0 0 0 0 0 0 0 0 0 0 0 0 0
0 0 0 0 0 0 0 0 0 0 0 0 0 0 0 0 0 -0 0 0 0 0 0 0 0 0 0 0 0 0 0 0 0 0 0 0 0 0 0 0 0 0 0 0
0 0 0 0 0 0 0 0 0 0 0 0 0 0 0 0 0 0 0 0 0 0 0 0 0 0 0 0 0 0 0 0 0 0 0 0 0 0 0 0 0 0 0 0
0 0 0 0 0 0 0 0 0 0 0 0 0 0 0 0 0 0 0 0 0 0 0 0 0 0 0 0 0 0 0 0 0 0 0 0 0 0 0 0 0 0 0 0
0 0 0 0 0 0 0 0 0 0 0 0 0 0 0 0 0 0 0 0 0 0 0 0 0 0 0 0 0 0 0 0 0 0 0 0 0 0 0 0 0 0 0 0
0 0 0 0 0 0 0 0 0 0 0 0 0 0 0 0 0 0 0 0 0 0 0 0 0 0 0 0 0 0 0 0 0 0 0 0 0 0 0 0 0 0 0 0
0 0 0 0 0 0 0 0 0 0 0 0 0 0 0 0 0 0 0 0 0 0 0 0 -0 -0 0 0 0 0 0 0 0 0 0 0 0 0 0 0 0 0 0 0
0 0 0 0 0 0 0 0 0 0 0 0 0 0 0 0 0 0 0 0 0 0 0 -0 -0 -0 0 0 0 0 0 0 0 0 0 0 0 0 0 0 0 0 0 0
0 0 0 0 0 0 0 0 0 0 0 0 0 0 0 0 0 0 0 0 0 -0 -0 -0 0 0 0 0 0 0 0 0 0 0 0 0 0 0 0 0 0 0 0 0
0 0 0 0 0 0 0 0 0 0 0 0 0 0 0 0 0 0 0 0 0 0 0 0 0 0 0 0 0 0 0 0 0 0 0 0 0 0 0 0 0 0 0 0
0 0 0 0 0 0 0 0 0 0 0 0 0 0 0 0 0 0 0 0 0 0 0 0 0 0 0 0 0 0 0 0 0 0 0 0 0 0 0 0 0 0 0 0
0 0 0 0 0 0 0 0 0 0 0 0 0 0 0 0 0 0 0 0 0 0 0 0 0 0 0 0 0 0 0 0 0 0 0 0 0 0 0 0 0 0 0 0
0 0 0 0 0 0 0 0 0 0 0 0 0 0 0 0 0 0 0 0 0 0 0 0 0 0 0 0 0 0 0 0 0 0 0 0 0 0 0 0 0 0 0 0
0 0 0 0 0 0 0 0 0 0 0 0 0 0 0 0 0 0 0 0 0 0 0 0 0 0 0 0 0 0 0 0 0 0 0 0 0 0 0 0 0 0 0 0
0 0 0 0 0 0 0 0 0 0 0 0 0 0 0 0 0 0 0 0 0 0 0 0 0 0 0 0 0 0 0 0 0 0 0 0 0 0 0 0 0 0 0 0
0 0 0 0 0 0 0 0 0 0 0 0 0 0 0 0 0 0 0 0 0 0 0 0 0 0 0 0 0 0 0 0 0 0 0 0 0 0 0 0 0 0 0 0
0 0 0 0 0 0 0 0 0 0 0 0 0 0 0 0 0 0 0 0 0 0 0 0 0 0 0 0 0 0 0 0 0 0 0 0 0 0 0 0 0 0 0 0
0 0 0 0 0 0 0 0 0 0 0 0 0 0 0 0 0 0 0 0 0 0 0 0 0 0 0 0 0 0 0 0 0 0 0 0 0 0 0 0 0 0 0 0
0 0 0 0 0 0 0 0 0 0 0 0 0 0 0 0 0 0 0 0 0 0 0 0 0 0 0 0 0 0 0 0 0 0 0 0 0 0 0 0 0 0 0 0
0 0 0 0 0 0 0 0 0 0 0 0 0 0 0 0 0 0 0 0 0 0 0 0 0 0 0 0 0 0 0 0 0 0 0 0 0 0 0 0 0 0 0 0
Wind_Speed_500mb
13 9 13 15 13 14 11 11 11 5 1 6 12 13 16 15 14 37 49 53 56 61 53 55 55 55 55 57 60 60 58 56 54 55 57 71 69 64 62 59 56 53 51 49
9 13 13 14 10 9 6 10 9 4 4 5 2 21 18 15 22 41 58 56 61 60 61 56 57 61 64 62 61 63 62 55 53 56 55 58 62 71 67 65 62 56 56 55
16 14 19 15 12 12 8 12 10 10 7 3 5 14 11 14 35 48 52 56 58 66 66 55 50 52 54 60 62 64 63 59 55 54 53 55 57 59 64 70 71 69 66 61
11 7 19 9 12 12 10 10 11 15 11 8 4 10 10 9 18 16 53 71 76 79 76 67 55 48 48 54 58 56 63 64 62 61 62 59 61 64 59 58 58 59 62 68
15 16 14 9 12 12 12 9 12 7 9 9 1 2 13 1 14 19 46 73 69 71 73 63 54 52 49 49 58 54 55 58 64 67 69 67 68 66 63 59 50 45 47 53
10 8 17 19 7 14 19 14 14 8 5 4 12 12 10 9 16 15 12 28 42 36 35 47 48 47 47 47 54 57 57 58 62 67 73 75 76 75 75 72 61 50 49 53
5 5 3 11 14 6 7 13 5 3 4 9 3 3 15 16 19 12 11 18 16 19 21 26 38 37 36 39 45 51 54 54 58 63 68 71 75 76 80 77 69 58 57 56
16 10 16 10 14 17 12 16 11 12 6 7 2 14 12 12 24 32 31 15 6 10 13 17 23 26 29 32 36 40 46 50 52 57 62 66 71 73 76 74 68 62 59 55
13 9 2 5 9 22 12 12 15 14 4 5 9 12 21 9 13 9 13 14 11 11 13 16 18 21 25 31 37 39 42 45 50 53 54 58 64 72 74 67 59 54 53 51
13 10 1 5 9 6 17 20 8 4 8 7 9 10 11 8 11 9 11 16 16 17 16 16 16 16 20 22 23 25 26 27 28 30 31 32 33 42 53 52 51 52 55 51
11 9 5 7 13 16 9 8 7 11 11 10 2 11 12 11 4 4 17 16 17 18 16 13 12 13 15 16 19 21 22 23 24 27 28 27 25 26 33 39 41 48 50 52
6 11 10 7 4 3 4 13 12 12 11 2 6 11 5 9 3 18 19 13 10 11 12 9 8 10 13 17 20 22 24 27 28 28 29 28 28 24 24 30 37 40 42 45
15 2 8 8 9 1 12 6 11 11 6 13 11 11 6 4 11 18 28 23 19 14 10 7 6 10 15 19 22 25 27 28 29 29 28 28 27 25 25 27 30 33 39 39
24 8 15 24 24 16 11 12 11 11 3 8 16 7 6 8 11 12 10 12 11 7 3 6 12 15 19 23 25 27 29 29 30 29 29 28 26 26 29 30 30 34 35 37
12 14 9 5 11 16 8 20 24 30 42 24 26 20 14 17 17 6 2 5 5 9 19 27 31 31 30 31 30 28 29 31 30 30 30 29 26 25 26 28 30 32 32 32
7 5 7 6 7 7 9 20 34 43 29 20 6 4 12 37 28 7 6 3 13 21 25 29 33 35 36 37 37 34 32 30 29 28 29 29 27 28 30 32 32 32 32 32
16 12 7 11 3 12 9 34 30 26 18 24 33 22 14 8 19 22 11 8 14 26 32 33 35 40 41 38 37 38 34 32 32 32 31 31 31 31 33 33 34 34 32 31
14 15 6 6 4 9 19 14 35 40 24 41 11 15 29 28 28 19 12 15 17 18 21 24 28 33 39 41 39 38 37 35 34 34 35 34 34 34 35 35 34 33 32 30
4 10 7 12 9 9 7 10 16 21 34 28 38 16 24 26 15 9 10 8 4 9 15 23 25 29 30 31 32 37 39 38 36 37 36 36 37 37 38 37 36 34 32 29
6 5 9 8 13 23 5 13 22 16 36 17 31 23 27 31 7 7 19 6 6 11 15 19 24 27 26 23 23 30 37 38 39 37 37 38 39 40 38 37 36 34 30 26
7 4 28 5 11 16 10 9 29 21 15 9 37 50 53 12 15 30 16 7 5 8 13 18 20 22 23 22 20 26 33 37 35 37 38 39 40 40 39 38 37 34 31 27
19 22 9 6 5 29 20 11 25 6 12 25 34 42 37 39 30 21 13 5 6 14 19 21 23 25 25 25 22 24 31 32 37 38 39 40 40 39 36 34 34 33 26 20
13 14 14 19 13 3 34 3 18 19 41 41 44 36 35 33 25 15 8 2 9 16 19 20 21 24 24 22 21 24 28 33 38 39 41 41 42 43 42 40 32 24 19 15
7 8 11 9 8 8 31 19 22 31 38 39 35 31 23 19 11 4 3 9 15 18 19 20 22 23 23 23 20 22 29 33 37 41 44 46 47 47 45 40 33 27 23 22
8 16 11 1 5 17 21 31 38 36 34 29 26 20 14 9 5 2 7 11 14 16 20 23 25 25 24 24 24 27 33 38 42 45 47 49 50 49 45 37 32 29 35 29
10 11 13 8 36 12 28 40 34 32 29 24 23 22 16 9 2 3 9 15 18 21 25 28 29 27 27 30 29 33 37 41 45 50 53 53 55 52 46 40 39 36 28 27
Wind_Direction_500mb
163 133 185 174 171 168 160 159 162 169 73 159 221 259 249 213 217 226 227 224 225 232 241 241 240 239 238 236 236 236 237 238 237 233 232 231 235 237 241 240 242 244 248 250
80 199 208 172 155 137 143 166 171 71 72 165 306 263 253 229 234 225 228 227 229 236 242 244 247 244 240 239 239 237 236 237 239 241 242 244 240 238 241 244 246 246 247 251
160 198 167 161 160 154 179 168 184 162 140 114 6 283 253 248 238 242 242 240 240 241 243 240 242 244 240 239 241 240 238 240 241 244 247 247 249 241 240 242 244 247 250 252
167 167 159 157 186 132 189 198 158 141 131 190 74 278 275 260 261 231 244 240 239 238 244 243 245 245 244 245 246 247 243 242 243 244 245 248 250 254 259 255 255 252 250 255
205 150 139 169 178 146 215 133 133 106 99 99 163 223 265 335 274 248 237 239 243 246 249 249 245 242 244 246 244 247 249 244 243 243 247 249 251 258 262 261 259 259 257 253
168 171 162 176 110 160 145 91 50 60 115 236 199 166 262 193 214 255 250 253 252 255 254 236 233 239 243 244 238 240 243 244 244 243 245 250 254 256 258 258 258 260 262 258
112 166 165 137 94 75 152 107 28 1 321 222 119 184 246 240 240 228 265 298 275 232 228 223 227 236 240 238 234 233 237 240 244 247 249 252 254 256 258 260 260 259 258 257
158 196 168 177 165 158 178 150 149 179 217 220 118 234 242 230 259 263 257 270 225 174 186 204 214 224 231 234 235 236 240 243 246 249 252 256 259 259 260 261 260 256 251 261
145 181 79 142 142 157 189 186 154 105 39 39 217 297 300 282 264 244 205 199 184 176 176 183 202 218 233 242 246 251 256 261 262 262 261 257 255 256 257 257 261 256 253 257
194 113 126 136 112 57 179 154 117 55 138 255 281 283 236 277 243 174 201 201 200 199 199 206 219 237 249 253 256 258 257 259 265 270 271 266 258 253 253 252 251 253 254 250
133 101 196 136 205 162 137 178 68 116 153 173 222 263 223 261 274 162 219 199 197 199 198 217 243 264 276 275 269 270 274 273 271 271 272 275 272 258 250 247 240 244 248 250
142 114 133 202 232 181 208 168 156 184 203 163 135 273 35 321 255 117 110 131 153 169 190 213 244 266 277 276 275 274 272 271 275 280 283 279 269 262 252 243 237 241 242 253
176 46 89 27 344 72 199 195 166 99 77 194 148 248 12 309 84 101 104 103 112 128 159 196 256 279 279 282 284 281 278 278 277 275 271 267 258 241 233 233 238 246 249 246
131 133 160 196 211 126 166 160 164 134 209 157 229 175 241 225 187 153 122 118 125 135 181 268 285 294 287 282 281 284 285 283 278 273 270 267 259 241 233 237 239 238 238 238
145 166 165 107 165 153 151 179 178 198 218 199 238 187 215 202 193 251 104 109 69 3 333 329 321 308 297 292 288 285 280 277 274 269 266 264 254 244 235 233 233 232 229 233
19 173 113 354 99 135 164 189 191 213 220 241 118 217 235 216 224 217 161 279 320 312 312 309 303 301 299 293 288 283 277 274 271 266 262 263 257 248 235 230 228 227 225 224
139 122 90 237 99 75 317 213 201 212 209 215 234 212 177 177 187 197 218 266 291 297 296 294 290 292 294 293 285 277 271 267 264 261 257 250 244 237 229 223 218 214 211 209
141 120 108 161 81 183 256 184 198 203 216 222 225 142 180 188 186 185 209 271 286 299 306 300 294 293 289 286 278 265 260 259 257 254 247 241 236 230 225 220 216 214 212 212
80 132 117 153 203 288 244 205 153 178 240 216 224 175 158 156 168 220 210 205 244 319 331 333 315 296 299 288 275 259 254 252 249 245 241 236 232 228 224 220 218 216 215 212
49 192 144 141 168 220 169 192 175 97 258 183 172 168 164 154 165 223 177 151 49 5 346 338 330 327 320 306 284 258 252 250 249 247 242 237 232 227 224 222 218 213 206 204
116 68 201 175 221 281 240 180 154 162 256 154 187 171 163 155 172 147 144 119 60 20 9 358 344 331 321 312 287 258 250 250 250 247 241 237 232 227 223 218 210 206 199 195
167 171 188 108 109 246 170 119 170 213 121 149 147 145 136 137 136 138 135 107 30 8 356 347 342 337 328 317 297 264 251 249 244 241 238 232 227 219 211 206 199 193 200 209
207 193 182 190 211 218 176 222 196 157 147 150 146 143 144 143 147 148 143 45 348 343 337 333 332 330 324 316 296 271 253 248 245 239 232 226 220 213 205 199 201 208 216 220
263 187 157 110 212 171 174 148 157 149 151 151 154 152 148 142 145 138 323 318 309 310 313 311 309 314 315 305 286 258 245 240 238 235 229 221 214 206 202 204 209 212 208 236
189 142 148 67 82 109 163 157 152 147 148 149 141 144 148 152 162 272 316 307 302 303 310 307 303 303 299 292 279 259 247 240 235 232 226 218 210 206 207 213 209 241 260 259
191 162 173 207 177 161 178 165 161 156 147 141 137 129 124 114 87 300 305 304 309 312 309 303 301 297 289 281 271 258 250 243 238 231 222 215 210 208 215 224 248 253 238 235
Wind_Speed_850mb
13 9 13 15 13 14 11 11 11 5 1 6 12 13 16 15 14 37 49 53 56 61 53 55 55 55 55 57 60 60 58 56 54 55 57 71 69 64 62 59 56 53 51 49
9 13 13 14 10 9 6 10 9 4 4 5 2 21 18 15 22 41 58 56 61 60 61 56 57 61 64 62 61 63 62 55 53 56 55 58 62 71 67 65 62 56 56 55
16 14 19 15 12 12 8 12 10 10 7 3 5 14 11 14 35 48 52 56 58 66 66 55 50 52 54 60 62 64 63 59 55 54 53 55 57 59 64 70 71 69 66 61
11 7 19 9 12 12 10 10 11 15 11 8 4 10 10 9 18 16 53 71 76 79 76 67 55 48 48 54 58 56 63 64 62 61 62 59 61 64 59 58 58 59 62 68
15 16 14 9 12 12 12 9 12 7 9 9 1 2 13 1 14 19 46 73 69 71 73 63 54 52 49 49 58 54 55 58 64 67 69 67 68 66 63 59 50 45 47 53
10 8 17 19 7 14 19 14 14 8 5 4 12 12 10 9 16 15 12 28 42 36 35 47 48 47 47 47 54 57 57 58 62 67 73 75 76 75 75 72 61 50 49 53
5 5 3 11 14 6 7 13 5 3 4 9 3 3 15 16 19 12 11 18 16 19 21 26 38 37 36 39 45 51 54 54 58 63 68 71 75 76 80 77 69 58 57 56
16 10 16 10 14 17 12 16 11 12 6 7 2 14 12 12 24 32 31 15 6 10 13 17 23 26 29 32 36 40 46 50 52 57 62 66 71 73 76 74 68 62 59 55
13 9 2 5 9 22 12 12 15 14 4 5 9 12 21 9 13 9 13 14 11 11 13 16 18 21 25 31 37 39 42 45 50 53 54 58 64 72 74 67 59 54 53 51
13 10 1 5 9 6 17 20 8 4 8 7 9 10 11 8 11 9 11 16 16 17 16 16 16 16 20 22 23 25 26 27 28 30 31 32 33 42 53 52 51 52 55 51
11 9 5 7 13 16 9 8 7 11 11 10 2 11 12 11 4 4 17 16 17 18 16 13 12 13 15 16 19 21 22 23 24 27 28 27 25 26 33 39 41 48 50 52
6 11 10 7 4 3 4 13 12 12 11 2 6 11 5 9 3 18 19 13 10 11 12 9 8 10 13 17 20 22 24 27 28 28 29 28 28 24 24 30 37 40 42 45
15 2 8 8 9 1 12 6 11 11 6 13 11 11 6 4 11 18 28 23 19 14 10 7 6 10 15 19 22 25 27 28 29 29 28 28 27 25 25 27 30 33 39 39
24 8 15 24 24 16 11 12 11 11 3 8 16 7 6 8 11 12 10 12 11 7 3 6 12 15 19 23 25 27 29 29 30 29 29 28 26 26 29 30 30 34 35 37
12 14 9 5 11 16 8 20 24 30 42 24 26 20 14 17 17 6 2 5 5 9 19 27 31 31 30 31 30 28 29 31 30 30 30 29 26 25 26 28 30 32 32 32
7 5 7 6 7 7 9 20 34 43 29 20 6 4 12 37 28 7 6 3 13 21 25 29 33 35 36 37 37 34 32 30 29 28 29 29 27 28 30 32 32 32 32 32
16 12 7 11 3 12 9 34 30 26 18 24 33 22 14 8 19 22 11 8 14 26 32 33 35 40 41 38 37 38 34 32 32 32 31 31 31 31 33 33 34 34 32 31
14 15 6 6 4 9 19 14 35 40 24 41 11 15 29 28 28 19 12 15 17 18 21 24 28 33 39 41 39 38 37 35 34 34 35 34 34 34 35 35 34 33 32 30
4 10 7 12 9 9 7 10 16 21 34 28 38 16 24 26 15 9 10 8 4 9 15 23 25 29 30 31 32 37 39 38 36 37 36 36 37 37 38 37 36 34 32 29
6 5 9 8 13 23 5 13 22 16 36 17 31 23 27 31 7 7 19 6 6 11 15 19 24 27 26 23 23 30 37 38 39 37 37 38 39 40 38 37 36 34 30 26
7 4 28 5 11 16 10 9 29 21 15 9 37 50 53 12 15 30 16 7 5 8 13 18 20 22 23 22 20 26 33 37 35 37 38 39 40 40 39 38 37 34 31 27
19 22 9 6 5 29 20 11 25 6 12 25 34 42 37 39 30 21 13 5 6 14 19 21 23 25 25 25 22 24 31 32 37 38 39 40 40 39 36 34 34 33 26 20
13 14 14 19 13 3 34 3 18 19 41 41 44 36 35 33 25 15 8 2 9 16 19 20 21 24 24 22 21 24 28 33 38 39 41 41 42 43 42 40 32 24 19 15
7 8 11 9 8 8 31 19 22 31 38 39 35 31 23 19 11 4 3 9 15 18 19 20 22 23 23 23 20 22 29 33 37 41 44 46 47 47 45 40 33 27 23 22
8 16 11 1 5 17 21 31 38 36 34 29 26 20 14 9 5 2 7 11 14 16 20 23 25 25 24 24 24 27 33 38 42 45 47 49 50 49 45 37 32 29 35 29
10 11 13 8 36 12 28 40 34 32 29 24 23 22 16 9 2 3 9 15 18 21 25 28 29 27 27 30 29 33 37 41 45 50 53 53 55 52 46 40 39 36 28 27
Wind_Direction_850mb
163 133 185 174 171 168 160 159 162 169 73 159 221 259 249 213 217 226 227 224 225 232 241 241 240 239 238 236 236 236 237 238 237 233 232 231 235 237 241 240 242 244 248 250
80 199 208 172 155 137 143 166 171 71 72 165 306 263 253 229 234 225 228 227 229 236 242 244 247 244 240 239 239 237 236 237 239 241 242 244 240 238 241 244 246 246 247 251
160 198 167 161 160 154 179 168 184 162 140 114 6 283 253 248 238 242 242 240 240 241 243 240 242 244 240 239 241 240 238 240 241 244 247 247 249 241 240 242 244 247 250 252
167 167 159 157 186 132 189 198 158 141 131 190 74 278 275 260 261 231 244 240 239 238 244 243 245 245 244 245 246 247 243 242 243 244 245 248 250 254 259 255 255 252 250 255
205 150 139 169 178 146 215 133 133 106 99 99 163 223 265 335 274 248 237 239 243 246 249 249 245 242 244 246 244 247 249 244 243 243 247 249 251 258 262 261 259 259 257 253
168 171 162 176 110 160 145 91 50 60 115 236 199 166 262 193 214 255 250 253 252 255 254 236 233 239 243 244 238 240 243 244 244 243 245 250 254 256 258 258 258 260 262 258
112 166 165 137 94 75 152 107 28 1 321 222 119 184 246 240 240 228 265 298 275 232 228 223 227 236 240 238 234 233 237 240 244 247 249 252 254 256 258 260 260 259 258 257
158 196 168 177 165 158 178 150 149 179 217 220 118 234 242 230 259 263 257 270 225 174 186 204 214 224 231 234 235 236 240 243 246 249 252 256 259 259 260 261 260 256 251 261
145 181 79 142 142 157 189 186 154 105 39 39 217 297 300 282 264 244 205 199 184 176 176 183 202 218 233 242 246 251 256 261 262 262 261 257 255 256 257 257 261 256 253 257
194 113 126 136 112 57 179 154 117 55 138 255 281 283 236 277 243 174 201 201 200 199 199 206 219 237 249 253 256 258 257 259 265 270 271 266 258 253 253 252 251 253 254 250
133 101 196 136 205 162 137 178 68 116 153 173 222 263 223 261 274 162 219 199 197 199 198 217 243 264 276 275 269 270 274 273 271 271 272 275 272 258 250 247 240 244 248 250
142 114 133 202 232 181 208 168 156 184 203 163 135 273 35 321 255 117 110 131 153 169 190 213 244 266 277 276 275 274 272 271 275 280 283 279 269 262 252 243 237 241 242 253
176 46 89 27 344 72 199 195 166 99 77 194 148 248 12 309 84 101 104 103 112 128 159 196 256 279 279 282 284 281 278 278 277 275 271 267 258 241 233 233 238 246 249 246
131 133 160 196 211 126 166 160 164 134 209 157 229 175 241 225 187 153 122 118 125 135 181 268 285 294 287 282 281 284 285 283 278 273 270 267 259 241 233 237 239 238 238 238
145 166 165 107 165 153 151 179 178 198 218 199 238 187 215 202 193 251 104 109 69 3 333 329 321 308 297 292 288 285 280 277 274 269 266 264 254 244 235 233 233 232 229 233
19 173 113 354 99 135 164 189 191 213 220 241 118 217 235 216 224 217 161 279 320 312 312 309 303 301 299 293 288 283 277 274 271 266 262 263 257 248 235 230 228 227 225 224
139 122 90 237 99 75 317 213 201 212 209 215 234 212 177 177 187 197 218 266 291 297 296 294 290 292 294 293 285 277 271 267 264 261 257 250 244 237 229 223 218 214 211 209
141 120 108 161 81 183 256 184 198 203 216 222 225 142 180 188 186 185 209 271 286 299 306 300 294 293 289 286 278 265 260 259 257 254 247 241 236 230 225 220 216 214 212 212
80 132 117 153 203 288 244 205 153 178 240 216 224 175 158 156 168 220 210 205 244 319 331 333 315 296 299 288 275 259 254 252 249 245 241 236 232 228 224 220 218 216 215 212
49 192 144 141 168 220 169 192 175 97 258 183 172 168 164 154 165 223 177 151 49 5 346 338 330 327 320 306 284 258 252 250 249 247 242 237 232 227 224 222 218 213 206 204
116 68 201 175 221 281 240 180 154 162 256 154 187 171 163 155 172 147 144 119 60 20 9 358 344 331 321 312 287 258 250 250 250 247 241 237 232 227 223 218 210 206 199 195
167 171 188 108 109 246 170 119 170 213 121 149 147 145 136 137 136 138 135 107 30 8 356 347 342 337 328 317 297 264 251 249 244 241 238 232 227 219 211 206 199 193 200 209
207 193 182 190 211 218 176 222 196 157 147 150 146 143 144 143 147 148 143 45 348 343 337 333 332 330 324 316 296 271 253 248 245 239 232 226 220 213 205 199 201 208 216 220
263 187 157 110 212 171 174 148 157 149 151 151 154 152 148 142 145 138 323 318 309 310 313 311 309 314 315 305 286 258 245 240 238 235 229 221 214 206 202 204 209 212 208 236
189 142 148 67 82 109 163 157 152 147 148 149 141 144 148 152 162 272 316 307 302 303 310 307 303 303 299 292 279 259 247 240 235 232 226 218 210 206 207 213 209 241 260 259
191 162 173 207 177 161 178 165 161 156 147 141 137 129 124 114 87 300 305 304 309 312 309 303 301 297 289 281 271 258 250 243 238 231 222 215 210 208 215 224 248 253 238 235